Tracking 23440 objects as of 12-Jun-2021
HD Live streaming from Space Station
objects crossing your sky now

TDO SPACECRAFT

Track TDO SPACECRAFT now!


NORAD ID: 44482
Int'l Code: 2019-051B
Perigee: 239.0 km
Apogee: 34,769.3 km
Inclination: 26.6 °
Period: 611.9 minutes
Semi major axis: 23875 km
RCS: Unknown
Launch date: August 8, 2019
Source: United States (US)
Launch site: AIR FORCE EASTERN TEST RANGE (AFETR)
aabbcc
Your satellite tracking list
Your tracking list is empty




NASA's NSSDC Master Catalog

Two Line Element Set (TLE):
1 44482U 19051B   21159.92386156  .00000664  00000-0  21237-3 0  9990
2 44482  26.5638  39.4042 7231451 256.9896  20.0407  2.35333620 15640
Source of the keplerian elements: AFSPC